Location: G�nzburg
(48.4565°N, 10.3217°E)
Time: 17:54:16
(UTC+01:00)

Envisat - Visible Passes

Search period start: 23 November 2017 00:00
Search period end: 03 December 2017 00:00
Orbit: 764 x 766 km, 98.2° (Epoch: 23 November)

Date Brightness Start Highest point End Pass type
(mag) Time Alt. Az. Time Alt. Az. Time Alt. Az.
23 Nov 5.1 19:01:51 14° N 19:01:51 14° N 19:02:35 10° N visible
24 Nov 5.1 18:24:46 11° NNE 18:24:46 11° NNE 18:25:03 10° NNE visible
24 Nov 5.6 20:04:59 12° NNW 20:04:59 12° NNW 20:05:19 10° NNW visible
25 Nov 5.3 19:27:55 13° N 19:27:55 13° N 19:28:28 10° N visible
26 Nov 5.2 18:50:50 12° N 18:50:50 12° N 18:51:17 10° N visible
27 Nov 5.5 19:53:58 11° NNW 19:53:58 11° NNW 19:54:11 10° NNW visible
28 Nov 5.3 19:16:53 12° N 19:16:53 12° N 19:17:15 10° N visible
29 Nov 5.2 18:39:47 11° NNE 18:39:47 11° NNE 18:39:57 10° N visible
30 Nov 5.5 19:42:54 11° N 19:42:54 11° N 19:43:03 10° N visible
01 Dec 5.3 19:05:49 11° N 19:05:49 11° N 19:06:00 10° N visible
